This is the latest recevied weather packets stored in our database for station/object KD8OZS. If no packets are shown the sender has not sent any weather packets the latest 10 day(s).
| Time | Temp. | Humidity | Pressure | Rain* | Wind** | Luminosity | Snow |
|---|---|---|---|---|---|---|---|
| 1788038639 | 27.22° C | 63% | 1013.8 hPa | 0 mm | - | 331 W/m² | - |
| 1788038338 | 27.22° C | 58% | 1013.9 hPa | 0 mm | - | 129 W/m² | - |
| 1788038034 | 26.67° C | 62% | 1013.9 hPa | 0 mm | - | 285 W/m² | - |
| 1788037728 | 27.22° C | 61% | 1014.1 hPa | 0 mm | - | 275 W/m² | - |
| 1788037423 | 27.22° C | 68% | 1013.9 hPa | 0 mm | - | 423 W/m² | - |
| 1788037122 | 26.67° C | 64% | 1013.9 hPa | 0 mm | - | 415 W/m² | - |
| 1788036817 | 26.67° C | 64% | 1013.9 hPa | 0 mm | - | 343 W/m² | - |
| 1788036515 | 26.67° C | 61% | 1014.1 hPa | 0 mm | - | 241 W/m² | - |
| 1788036215 | 27.22° C | 60% | 1014.2 hPa | 0 mm | - | 374 W/m² | - |
| 1788035915 | 27.22° C | 56% | 1014.4 hPa | 0 mm | - | 415 W/m² | - |
| 1788035614 | 27.22° C | 59% | 1014.3 hPa | 0 mm | - | 475 W/m² | - |
| 1788035309 | 26.67° C | 59% | 1014.4 hPa | 0 mm | - | 388 W/m² | - |
| 1788035006 | 27.78° C | 61% | 1014.4 hPa | 0 mm | - | 438 W/m² | - |
| 1788034702 | 28.33° C | 56% | 1014.3 hPa | 0 mm | - | 417 W/m² | - |
| 1788034397 | 28.33° C | 55% | 1014.5 hPa | 0 mm | - | 564 W/m² | - |
| 1788034093 | 26.67° C | 60% | 1014.4 hPa | 0 mm | - | 294 W/m² | - |
| 1788033792 | 27.22° C | 58% | 1014.4 hPa | 0 mm | - | 202 W/m² | - |
| 1788033486 | 27.22° C | 61% | 1014.6 hPa | 0 mm | - | 521 W/m² | - |
| 1788033181 | 26.67° C | 58% | 1014.5 hPa | 0 mm | - | 452 W/m² | - |
| 1788032876 | 28.33° C | 59% | 1014.6 hPa | 0 mm | - | 565 W/m² | - |
| 1788032576 | 27.22° C | 57% | 1014.4 hPa | 0 mm | - | 581 W/m² | - |
| 1788032272 | 26.67° C | 58% | 1014.7 hPa | 0 mm | - | 665 W/m² | - |
| 1788031967 | 26.67° C | 61% | 1014.5 hPa | 0 mm | - | 539 W/m² | - |
| 1788031662 | 27.78° C | 57% | 1014.6 hPa | 0 mm | - | 173 W/m² | - |
| 1788031362 | 27.22° C | 56% | 1014.7 hPa | 0 mm | - | 717 W/m² | - |
* Rain latest hour (hover to see other rain measurements)
** Current wind speed in m/s (hover to see current wind gust speed)